Time,TemperatureF,DewpointF,PressureIn,WindDirection,WindDirectionDegrees,WindSpeedMPH,WindSpeedGustMPH,Humidity,HourlyPrecipIn,Conditions,Clouds,dailyrainin,SoftwareType,DateUTC
2013-11-17 00:00:00,50.4,46.1,30.18,SW,219,2.0,7.0,85,0.00,,OVC070,0.00,VWS V14.01,2013-11-17 05:00:00,
2013-11-17 00:01:00,50.4,46.1,30.18,East,83,0.0,1.0,85,0.00,,OVC015,0.00,VWS V14.01,2013-11-17 05:01:00,
2013-11-17 00:02:00,50.4,46.1,30.18,East,79,0.0,1.0,85,0.00,,OVC015,0.00,VWS V14.01,2013-11-17 05:02:00,
2013-11-17 00:07:00,50.5,46.2,30.18,East,101,0.0,7.0,85,0.00,,OVC015,0.00,VWS V14.01,2013-11-17 05:07:00,
2013-11-17 00:12:00,50.6,46.3,30.17,SSW,210,0.0,7.0,85,0.00,,OVC015,0.00,VWS V14.01,2013-11-17 05:12:00,
2013-11-17 00:17:00,50.5,46.2,30.17,WSW,250,1.0,7.0,85,0.00,,OVC015,0.00,VWS V14.01,2013-11-17 05:17:00,
2013-11-17 00:22:00,50.6,46.3,30.18,WSW,238,2.0,7.0,85,0.00,,OVC015,0.00,VWS V14.01,2013-11-17 05:22:00,
2013-11-17 00:27:00,50.7,46.7,30.17,ESE,107,4.0,8.0,86,0.00,,OVC015,0.00,VWS V14.01,2013-11-17 05:27:00,
2013-11-17 00:32:00,50.8,46.8,30.17,SSE,160,4.0,5.0,86,0.00,,OVC013,0.00,VWS V14.01,2013-11-17 05:32:00,
2013-11-17 00:37:00,50.9,46.9,30.17,SW,224,10.0,12.0,86,0.00,,OVC013,0.00,VWS V14.01,2013-11-17 05:37:00,
2013-11-17 00:42:00,51.0,47.0,30.17,SE,129,2.0,12.0,86,0.00,,OVC013,0.00,VWS V14.01,2013-11-17 05:42:00,
2013-11-17 00:47:00,51.1,47.1,30.17,East,86,3.0,12.0,86,0.00,,OVC013,0.00,VWS V14.01,2013-11-17 05:47:00,
2013-11-17 00:52:00,51.1,47.1,30.17,SW,231,0.0,12.0,86,0.00,,OVC013,0.00,VWS V14.01,2013-11-17 05:52:00,
2013-11-17 00:57:00,51.1,47.1,30.16,SSW,194,1.0,12.0,86,0.00,,OVC013,0.00,VWS V14.01,2013-11-17 05:57:00,
2013-11-17 01:02:00,51.1,47.1,30.16,East,94,0.0,9.0,86,0.00,,,0.00,VWS V14.01,2013-11-17 06:02:00,
2013-11-17 01:07:00,51.1,47.1,30.16,SSW,212,4.0,10.0,86,0.00,,,0.00,VWS V14.01,2013-11-17 06:07:00,
2013-11-17 01:12:00,51.0,47.3,30.16,WNW,286,3.0,10.0,87,0.00,,,0.00,VWS V14.01,2013-11-17 06:12:00,
2013-11-17 01:17:00,51.0,47.3,30.17,East,87,1.0,10.0,87,0.00,,,0.00,VWS V14.01,2013-11-17 06:17:00,
2013-11-17 01:22:00,51.0,47.3,30.16,ENE,77,1.0,10.0,87,0.00,,,0.00,VWS V14.01,2013-11-17 06:22:00,
2013-11-17 01:27:00,51.0,47.3,30.15,ESE,115,3.0,10.0,87,0.00,,,0.00,VWS V14.01,2013-11-17 06:27:00,
2013-11-17 01:32:00,51.0,47.3,30.15,SW,231,1.0,1.0,87,0.00,,,0.00,VWS V14.01,2013-11-17 06:32:00,
2013-11-17 01:37:00,50.9,47.2,30.16,ESE,113,1.0,3.0,87,0.00,,,0.00,VWS V14.01,2013-11-17 06:37:00,
2013-11-17 01:42:00,51.0,47.6,30.16,SW,232,0.0,4.0,88,0.00,,,0.00,VWS V14.01,2013-11-17 06:42:00,
2013-11-17 01:47:00,51.0,47.6,30.16,North,355,0.0,5.0,88,0.00,,,0.00,VWS V14.01,2013-11-17 06:47:00,
2013-11-17 01:52:00,51.1,47.7,30.17,NNE,12,0.0,5.0,88,0.00,,,0.00,VWS V14.01,2013-11-17 06:52:00,
2013-11-17 01:57:00,51.1,47.7,30.18,NNE,21,0.0,5.0,88,0.00,,,0.00,VWS V14.01,2013-11-17 06:57:00,
2013-11-17 02:02:00,51.1,47.7,30.18,WNW,293,2.0,2.0,88,0.00,,OVC009,0.00,VWS V14.01,2013-11-17 07:02:00,
2013-11-17 02:07:00,51.1,47.7,30.18,WSW,238,1.0,3.0,88,0.00,,OVC009,0.00,VWS V14.01,2013-11-17 07:07:00,
2013-11-17 02:12:00,51.1,47.7,30.17,East,82,3.0,3.0,88,0.00,,OVC009,0.00,VWS V14.01,2013-11-17 07:12:00,
2013-11-17 02:17:00,51.0,47.6,30.16,West,281,3.0,5.0,88,0.00,,OVC009,0.00,VWS V14.01,2013-11-17 07:17:00,
2013-11-17 02:22:00,51.0,47.6,30.16,East,90,0.0,5.0,88,0.00,,OVC009,0.00,VWS V14.01,2013-11-17 07:22:00,
2013-11-17 02:27:00,50.9,47.8,30.16,ESE,112,1.0,5.0,89,0.00,,OVC009,0.00,VWS V14.01,2013-11-17 07:27:00,
2013-11-17 02:32:00,50.8,47.7,30.16,East,98,0.0,1.0,89,0.00,,OVC009,0.00,VWS V14.01,2013-11-17 07:32:00,
2013-11-17 02:37:00,50.8,48.0,30.16,East,99,1.0,4.0,90,0.00,,OVC009,0.00,VWS V14.01,2013-11-17 07:37:00,
2013-11-17 02:42:00,50.8,48.0,30.16,East,87,1.0,4.0,90,0.00,,OVC009,0.00,VWS V14.01,2013-11-17 07:42:00,
2013-11-17 02:47:00,50.7,47.9,30.16,East,79,0.0,4.0,90,0.00,,OVC009,0.00,VWS V14.01,2013-11-17 07:47:00,
2013-11-17 02:52:00,50.7,47.9,30.16,East,98,1.0,4.0,90,0.00,,OVC009,0.00,VWS V14.01,2013-11-17 07:52:00,
2013-11-17 02:57:00,50.6,47.8,30.15,East,86,0.0,4.0,90,0.00,,OVC009,0.00,VWS V14.01,2013-11-17 07:57:00,
2013-11-17 03:02:00,50.6,47.8,30.15,East,95,1.0,1.0,90,0.00,,,0.00,VWS V14.01,2013-11-17 08:02:00,
2013-11-17 03:07:00,50.5,48.0,30.15,ESE,112,0.0,1.0,91,0.00,,,0.00,VWS V14.01,2013-11-17 08:07:00,
2013-11-17 03:12:00,50.5,48.0,30.15,East,97,1.0,3.0,91,0.00,,,0.00,VWS V14.01,2013-11-17 08:12:00,
2013-11-17 03:17:00,50.6,48.1,30.15,NNE,27,1.0,4.0,91,0.00,,,0.00,VWS V14.01,2013-11-17 08:17:00,
2013-11-17 03:22:00,50.6,48.1,30.15,East,94,0.0,4.0,91,0.00,,,0.00,VWS V14.01,2013-11-17 08:22:00,
2013-11-17 03:27:00,50.7,48.2,30.15,East,100,0.0,4.0,91,0.00,,,0.00,VWS V14.01,2013-11-17 08:27:00,
2013-11-17 03:32:00,50.6,48.1,30.14,East,83,1.0,3.0,91,0.00,,,0.00,VWS V14.01,2013-11-17 08:32:00,
2013-11-17 03:37:00,50.6,48.1,30.14,East,80,0.0,3.0,91,0.00,,,0.00,VWS V14.01,2013-11-17 08:37:00,
2013-11-17 03:42:00,50.5,48.0,30.14,ESE,103,3.0,3.0,91,0.00,,,0.00,VWS V14.01,2013-11-17 08:42:00,
2013-11-17 03:47:00,50.5,48.3,30.14,East,91,1.0,6.0,92,0.00,,,0.00,VWS V14.01,2013-11-17 08:47:00,
2013-11-17 03:52:00,50.5,48.3,30.14,ESE,102,0.0,6.0,92,0.00,,,0.00,VWS V14.01,2013-11-17 08:52:00,
2013-11-17 03:57:00,50.4,48.2,30.14,ESE,108,0.0,6.0,92,0.00,,,0.00,VWS V14.01,2013-11-17 08:57:00,
2013-11-17 04:02:00,50.4,48.2,30.13,ESE,110,2.0,5.0,92,0.00,,-RA,0.00,VWS V14.01,2013-11-17 09:02:00,
2013-11-17 04:07:00,50.5,48.3,30.13,East,87,4.0,5.0,92,0.00,,-RA,0.00,VWS V14.01,2013-11-17 09:07:00,
2013-11-17 04:11:00,50.6,48.4,30.12,East,89,0.0,6.0,92,0.00,,-RA,0.00,VWS V14.01,2013-11-17 09:11:00,
2013-11-17 04:16:00,50.7,48.5,30.13,ESE,105,0.0,6.0,92,0.00,,-RA,0.00,VWS V14.01,2013-11-17 09:16:00,
2013-11-17 04:21:00,50.6,48.4,30.12,SE,134,2.0,6.0,92,0.00,,-RA,0.00,VWS V14.01,2013-11-17 09:21:00,
2013-11-17 04:26:00,50.7,48.5,30.12,SW,215,1.0,6.0,92,0.00,,-RA,0.00,VWS V14.01,2013-11-17 09:26:00,
2013-11-17 04:31:00,50.8,48.6,30.12,WNW,287,2.0,6.0,92,0.00,,-RA,0.00,VWS V14.01,2013-11-17 09:31:00,
2013-11-17 04:36:00,50.9,48.7,30.12,SSW,205,4.0,6.0,92,0.00,,-RA,0.00,VWS V14.01,2013-11-17 09:36:00,
2013-11-17 04:41:00,51.0,48.5,30.11,SW,228,4.0,8.0,91,0.00,,-RA,0.00,VWS V14.01,2013-11-17 09:41:00,
2013-11-17 04:46:00,51.0,48.8,30.11,WSW,238,0.0,8.0,92,0.00,,-RA,0.00,VWS V14.01,2013-11-17 09:46:00,
2013-11-17 04:51:00,51.1,48.9,30.12,SW,225,0.0,8.0,92,0.00,,-RA,0.00,VWS V14.01,2013-11-17 09:51:00,
2013-11-17 04:56:00,51.1,48.9,30.11,ENE,72,0.0,8.0,92,0.00,,-RA,0.00,VWS V14.01,2013-11-17 09:56:00,
2013-11-17 05:01:00,51.0,48.8,30.11,SSW,203,1.0,6.0,92,0.00,,OVC007,0.00,VWS V14.01,2013-11-17 10:01:00,
2013-11-17 05:06:00,51.0,48.8,30.11,SW,229,4.0,6.0,92,0.00,,OVC007,0.00,VWS V14.01,2013-11-17 10:06:00,
2013-11-17 05:11:00,51.0,48.8,30.11,ENE,73,5.0,6.0,92,0.00,,OVC007,0.00,VWS V14.01,2013-11-17 10:11:00,
2013-11-17 05:16:00,51.0,48.8,30.10,NE,47,2.0,9.0,92,0.00,,OVC007,0.00,VWS V14.01,2013-11-17 10:16:00,
2013-11-17 05:21:00,51.0,48.8,30.10,NE,51,0.0,9.0,92,0.00,,OVC007,0.00,VWS V14.01,2013-11-17 10:21:00,
2013-11-17 05:26:00,51.0,48.8,30.10,NE,36,0.0,9.0,92,0.00,,OVC007,0.00,VWS V14.01,2013-11-17 10:26:00,
2013-11-17 05:31:00,51.0,49.0,30.10,SE,141,0.0,3.0,93,0.00,,OVC007,0.00,VWS V14.01,2013-11-17 10:31:00,
2013-11-17 05:36:00,51.0,49.0,30.09,SW,222,0.0,3.0,93,0.00,,OVC007,0.00,VWS V14.01,2013-11-17 10:36:00,
2013-11-17 05:41:00,51.1,49.2,30.09,SW,219,3.0,6.0,93,0.00,,OVC007,0.00,VWS V14.01,2013-11-17 10:41:00,
2013-11-17 05:46:00,51.2,49.2,30.09,WSW,250,3.0,7.0,93,0.00,,OVC007,0.00,VWS V14.01,2013-11-17 10:46:00,
2013-11-17 05:51:00,51.2,49.2,30.10,SW,222,6.0,7.0,93,0.00,,OVC007,0.00,VWS V14.01,2013-11-17 10:51:00,
2013-11-17 05:56:00,51.3,49.3,30.10,ESE,103,1.0,8.0,93,0.00,,OVC007,0.00,VWS V14.01,2013-11-17 10:56:00,
2013-11-17 06:01:00,51.4,49.5,30.10,ENE,58,1.0,7.0,93,0.00,,,0.00,VWS V14.01,2013-11-17 11:01:00,
2013-11-17 06:06:00,51.5,49.3,30.09,West,268,3.0,7.0,92,0.00,,,0.00,VWS V14.01,2013-11-17 11:06:00,
2013-11-17 06:11:00,51.6,49.4,30.09,East,82,0.0,9.0,92,0.00,,,0.00,VWS V14.01,2013-11-17 11:11:00,
2013-11-17 06:16:00,51.6,49.4,30.09,SSW,193,0.0,9.0,92,0.00,,,0.00,VWS V14.01,2013-11-17 11:16:00,
2013-11-17 06:21:00,51.6,49.4,30.09,SE,137,0.0,9.0,92,0.00,,,0.00,VWS V14.01,2013-11-17 11:21:00,
2013-11-17 06:26:00,51.6,49.4,30.08,East,97,1.0,9.0,92,0.00,,,0.00,VWS V14.01,2013-11-17 11:26:00,
2013-11-17 06:31:00,51.6,49.4,30.08,SW,236,3.0,4.0,92,0.00,,,0.00,VWS V14.01,2013-11-17 11:31:00,
2013-11-17 06:36:00,51.6,49.7,30.09,East,94,0.0,7.0,93,0.00,,,0.00,VWS V14.01,2013-11-17 11:36:00,
2013-11-17 06:41:00,51.7,49.5,30.09,SSE,148,0.0,7.0,92,0.00,,,0.00,VWS V14.01,2013-11-17 11:41:00,
2013-11-17 06:46:00,51.7,49.8,30.09,WSW,248,0.0,7.0,93,0.00,,,0.00,VWS V14.01,2013-11-17 11:46:00,
2013-11-17 06:51:00,51.7,49.8,30.09,ESE,107,2.0,7.0,93,0.00,,,0.00,VWS V14.01,2013-11-17 11:51:00,
2013-11-17 06:56:00,51.7,49.8,30.09,ENE,63,2.0,7.0,93,0.00,,,0.00,VWS V14.01,2013-11-17 11:56:00,
2013-11-17 07:01:00,51.9,49.9,30.09,East,84,3.0,3.0,93,0.00,,,0.00,VWS V14.01,2013-11-17 12:01:00,
2013-11-17 07:06:00,52.0,50.0,30.09,SSW,211,0.0,4.0,93,0.00,,,0.00,VWS V14.01,2013-11-17 12:06:00,
2013-11-17 07:11:00,52.1,49.8,30.09,East,86,0.0,5.0,92,0.00,,,0.00,VWS V14.01,2013-11-17 12:11:00,
2013-11-17 07:16:00,52.1,49.8,30.09,East,79,1.0,5.0,92,0.00,,,0.00,VWS V14.01,2013-11-17 12:16:00,
2013-11-17 07:21:00,52.2,50.0,30.09,NNW,340,0.0,7.0,92,0.00,,,0.00,VWS V14.01,2013-11-17 12:21:00,
2013-11-17 07:26:00,52.3,50.0,30.09,North,1,2.0,7.0,92,0.00,,,0.00,VWS V14.01,2013-11-17 12:26:00,
2013-11-17 07:31:00,52.4,50.2,30.08,ENE,71,3.0,4.0,92,0.00,,,0.00,VWS V14.01,2013-11-17 12:31:00,
2013-11-17 07:36:00,52.5,50.2,30.08,East,82,2.0,7.0,92,0.00,,,0.00,VWS V14.01,2013-11-17 12:36:00,
2013-11-17 07:41:00,52.5,50.2,30.08,ENE,58,2.0,7.0,92,0.00,,,0.00,VWS V14.01,2013-11-17 12:41:00,
2013-11-17 07:46:00,52.5,50.2,30.08,WSW,239,2.0,7.0,92,0.00,,,0.00,VWS V14.01,2013-11-17 12:46:00,
2013-11-17 07:51:00,52.6,50.3,30.09,ESE,115,0.0,7.0,92,0.00,,,0.00,VWS V14.01,2013-11-17 12:51:00,
2013-11-17 07:56:00,52.7,50.5,30.09,WSW,242,1.0,7.0,92,0.00,,,0.00,VWS V14.01,2013-11-17 12:56:00,
2013-11-17 08:01:00,52.7,50.5,30.09,South,170,1.0,3.0,92,0.00,,,0.00,VWS V14.01,2013-11-17 13:01:00,
2013-11-17 08:06:00,52.8,50.5,30.09,SW,231,4.0,5.0,92,0.00,,,0.00,VWS V14.01,2013-11-17 13:06:00,
2013-11-17 08:11:00,52.8,50.2,30.09,ESE,105,0.0,5.0,91,0.00,,,0.00,VWS V14.01,2013-11-17 13:11:00,
2013-11-17 08:16:00,52.9,50.3,30.09,SW,218,6.0,6.0,91,0.00,,,0.00,VWS V14.01,2013-11-17 13:16:00,
2013-11-17 08:21:00,52.9,50.3,30.09,East,81,0.0,7.0,91,0.00,,,0.00,VWS V14.01,2013-11-17 13:21:00,
2013-11-17 08:26:00,52.9,50.3,30.09,SW,215,0.0,7.0,91,0.00,,,0.00,VWS V14.01,2013-11-17 13:26:00,
2013-11-17 08:31:00,52.9,50.6,30.09,WSW,245,0.0,2.0,92,0.00,,,0.00,VWS V14.01,2013-11-17 13:31:00,
2013-11-17 08:36:00,53.0,50.7,30.10,SSW,203,0.0,4.0,92,0.00,,,0.00,VWS V14.01,2013-11-17 13:36:00,
2013-11-17 08:41:00,53.2,50.7,30.10,SW,226,8.0,8.0,91,0.00,,,0.00,VWS V14.01,2013-11-17 13:41:00,
2013-11-17 08:46:00,53.2,50.7,30.09,ENE,74,3.0,11.0,91,0.00,,,0.00,VWS V14.01,2013-11-17 13:46:00,
2013-11-17 08:51:00,53.3,50.7,30.09,SW,219,4.0,11.0,91,0.00,,,0.00,VWS V14.01,2013-11-17 13:51:00,
2013-11-17 08:56:00,53.3,50.7,30.09,SW,233,3.0,11.0,91,0.00,,,0.00,VWS V14.01,2013-11-17 13:56:00,
2013-11-17 09:01:00,53.3,50.7,30.09,WSW,256,3.0,3.0,91,0.00,,,0.00,VWS V14.01,2013-11-17 14:01:00,
2013-11-17 09:06:00,53.3,50.7,30.09,SW,227,1.0,3.0,91,0.00,,,0.00,VWS V14.01,2013-11-17 14:06:00,
2013-11-17 09:11:00,53.3,51.0,30.09,East,89,1.0,4.0,92,0.00,,,0.00,VWS V14.01,2013-11-17 14:11:00,
2013-11-17 09:16:00,53.2,50.9,30.08,South,180,2.0,4.0,92,0.00,,,0.00,VWS V14.01,2013-11-17 14:16:00,
2013-11-17 09:21:00,53.3,51.0,30.08,SSW,205,2.0,7.0,92,0.00,,,0.00,VWS V14.01,2013-11-17 14:21:00,
2013-11-17 09:26:00,53.3,51.0,30.08,SW,225,1.0,7.0,92,0.00,,,0.00,VWS V14.01,2013-11-17 14:26:00,
2013-11-17 09:31:00,53.3,51.0,30.08,SW,219,0.0,0.0,92,0.00,,,0.00,VWS V14.01,2013-11-17 14:31:00,
2013-11-17 09:36:00,53.4,51.1,30.08,ESE,122,0.0,4.0,92,0.00,,,0.00,VWS V14.01,2013-11-17 14:36:00,
2013-11-17 09:41:00,53.5,51.2,30.08,SW,215,2.0,4.0,92,0.00,,,0.00,VWS V14.01,2013-11-17 14:41:00,
2013-11-17 09:46:00,53.6,51.3,30.08,South,172,3.0,10.0,92,0.00,,,0.00,VWS V14.01,2013-11-17 14:46:00,
2013-11-17 09:51:00,53.7,51.4,30.07,SSW,207,2.0,10.0,92,0.00,,,0.00,VWS V14.01,2013-11-17 14:51:00,
2013-11-17 09:56:00,53.8,51.5,30.07,SE,141,0.0,12.0,92,0.00,,,0.00,VWS V14.01,2013-11-17 14:56:00,
2013-11-17 10:01:00,53.8,51.5,30.07,WSW,246,2.0,2.0,92,0.00,,-RA,0.00,VWS V14.01,2013-11-17 15:01:00,
2013-11-17 10:06:00,53.9,51.6,30.07,SSW,195,1.0,5.0,92,0.00,,-RA,0.00,VWS V14.01,2013-11-17 15:06:00,
2013-11-17 10:11:00,53.9,51.6,30.07,WSW,253,5.0,7.0,92,0.00,,-RA,0.00,VWS V14.01,2013-11-17 15:11:00,
2013-11-17 10:16:00,54.2,51.6,30.06,SW,229,5.0,16.0,91,0.00,,-RA,0.00,VWS V14.01,2013-11-17 15:16:00,
2013-11-17 10:21:00,54.3,51.7,30.06,SE,145,2.0,16.0,91,0.00,,-RA,0.00,VWS V14.01,2013-11-17 15:21:00,
2013-11-17 10:26:00,54.3,51.7,30.05,NE,49,4.0,16.0,91,0.00,,-RA,0.00,VWS V14.01,2013-11-17 15:26:00,
2013-11-17 10:31:00,54.3,51.7,30.06,SW,222,3.0,6.0,91,0.00,,-RA,0.00,VWS V14.01,2013-11-17 15:31:00,
2013-11-17 10:36:00,54.4,51.8,30.06,SW,228,14.0,14.0,91,0.00,,-RA,0.00,VWS V14.01,2013-11-17 15:36:00,
2013-11-17 10:41:00,54.5,51.9,30.06,WSW,240,3.0,16.0,91,0.00,,-RA,0.00,VWS V14.01,2013-11-17 15:41:00,
2013-11-17 10:46:00,54.5,51.9,30.06,SSE,158,2.0,16.0,91,0.00,,-RA,0.00,VWS V14.01,2013-11-17 15:46:00,
2013-11-17 10:51:00,54.5,51.9,30.06,WSW,243,3.0,16.0,91,0.01,,-RA,0.01,VWS V14.01,2013-11-17 15:51:00,
2013-11-17 10:56:00,54.5,51.9,30.06,SW,219,1.0,16.0,91,0.01,,-RA,0.01,VWS V14.01,2013-11-17 15:56:00,
2013-11-17 11:01:00,54.4,51.8,30.05,SW,218,0.0,2.0,91,0.02,,-RA,0.02,VWS V14.01,2013-11-17 16:01:00,
2013-11-17 11:06:00,54.3,52.0,30.04,SW,236,4.0,9.0,92,0.03,,-RA,0.03,VWS V14.01,2013-11-17 16:06:00,
2013-11-17 11:11:00,54.5,52.2,30.04,ENE,62,2.0,12.0,92,0.03,,-RA,0.03,VWS V14.01,2013-11-17 16:11:00,
2013-11-17 11:16:00,54.6,52.3,30.03,SW,233,4.0,13.0,92,0.04,,-RA,0.04,VWS V14.01,2013-11-17 16:16:00,
2013-11-17 11:21:00,54.7,52.4,30.03,East,96,0.0,13.0,92,0.04,,-RA,0.04,VWS V14.01,2013-11-17 16:21:00,
2013-11-17 11:26:00,54.7,52.4,30.02,SE,141,5.0,13.0,92,0.04,,-RA,0.04,VWS V14.01,2013-11-17 16:26:00,
2013-11-17 11:31:00,54.8,52.5,30.01,SSW,207,2.0,8.0,92,0.04,,-RA,0.04,VWS V14.01,2013-11-17 16:31:00,
2013-11-17 11:36:00,54.9,52.6,30.02,West,264,4.0,11.0,92,0.04,,-RA,0.04,VWS V14.01,2013-11-17 16:36:00,
2013-11-17 11:41:00,54.9,52.6,30.01,SSW,200,6.0,11.0,92,0.04,,-RA,0.04,VWS V14.01,2013-11-17 16:41:00,
2013-11-17 11:46:00,55.0,52.7,30.01,South,169,3.0,13.0,92,0.04,,-RA,0.04,VWS V14.01,2013-11-17 16:46:00,
2013-11-17 11:51:00,55.0,52.4,30.01,West,278,5.0,14.0,91,0.04,,-RA,0.04,VWS V14.01,2013-11-17 16:51:00,
2013-11-17 11:56:00,55.0,52.4,30.00,SW,233,2.0,14.0,91,0.04,,-RA,0.04,VWS V14.01,2013-11-17 16:56:00,
2013-11-17 12:01:00,55.0,52.7,30.01,WNW,297,6.0,6.0,92,0.02,,,0.04,VWS V14.01,2013-11-17 17:01:00,
2013-11-17 12:06:00,54.9,52.6,30.00,WNW,289,2.0,11.0,92,0.02,,,0.04,VWS V14.01,2013-11-17 17:06:00,
2013-11-17 12:11:00,54.9,52.6,30.00,WNW,290,1.0,11.0,92,0.02,,,0.04,VWS V14.01,2013-11-17 17:11:00,
2013-11-17 12:16:00,55.0,52.7,30.00,SW,229,5.0,11.0,92,0.02,,,0.04,VWS V14.01,2013-11-17 17:16:00,
2013-11-17 12:21:00,55.0,52.7,29.99,WSW,250,2.0,15.0,92,0.03,,,0.05,VWS V14.01,2013-11-17 17:21:00,
2013-11-17 12:26:00,55.1,52.8,29.98,East,94,0.0,18.0,92,0.03,,,0.05,VWS V14.01,2013-11-17 17:26:00,
2013-11-17 12:31:00,55.1,52.8,29.98,SW,231,8.0,10.0,92,0.01,,,0.05,VWS V14.01,2013-11-17 17:31:00,
2013-11-17 12:36:00,55.2,52.9,29.98,SSW,210,2.0,14.0,92,0.01,,,0.05,VWS V14.01,2013-11-17 17:36:00,
2013-11-17 12:41:00,55.2,52.9,29.98,SW,218,10.0,14.0,92,0.01,,,0.05,VWS V14.01,2013-11-17 17:41:00,
2013-11-17 12:46:00,55.2,52.9,29.98,SSW,205,5.0,14.0,92,0.01,,,0.05,VWS V14.01,2013-11-17 17:46:00,
2013-11-17 12:51:00,55.2,52.9,29.98,West,276,1.0,14.0,92,0.01,,,0.05,VWS V14.01,2013-11-17 17:51:00,
2013-11-17 12:56:00,55.2,52.9,29.98,SW,219,2.0,14.0,92,0.01,,,0.05,VWS V14.01,2013-11-17 17:56:00,
2013-11-17 13:01:00,55.2,52.9,29.98,SW,219,0.0,2.0,92,0.01,,OVC009,0.05,VWS V14.01,2013-11-17 18:01:00,
2013-11-17 13:06:00,55.3,53.0,29.98,WSW,238,0.0,7.0,92,0.01,,OVC009,0.05,VWS V14.01,2013-11-17 18:06:00,
2013-11-17 13:11:00,55.3,53.0,29.98,East,86,1.0,8.0,92,0.01,,OVC009,0.05,VWS V14.01,2013-11-17 18:11:00,
2013-11-17 13:16:00,55.3,53.0,29.98,SSW,212,2.0,8.0,92,0.01,,OVC009,0.05,VWS V14.01,2013-11-17 18:16:00,
2013-11-17 13:21:00,55.4,53.1,29.98,South,181,1.0,8.0,92,0.01,,OVC009,0.05,VWS V14.01,2013-11-17 18:21:00,
2013-11-17 13:26:00,55.5,53.2,29.98,SSW,209,2.0,8.0,92,0.01,,OVC009,0.05,VWS V14.01,2013-11-17 18:26:00,
2013-11-17 13:31:00,55.5,53.2,29.98,SE,128,0.0,0.0,92,0.00,,OVC009,0.05,VWS V14.01,2013-11-17 18:31:00,
2013-11-17 13:36:00,55.5,53.2,29.97,ESE,102,0.0,3.0,92,0.00,,OVC009,0.05,VWS V14.01,2013-11-17 18:36:00,
2013-11-17 13:41:00,55.4,53.1,29.97,SE,131,0.0,3.0,92,0.00,,OVC009,0.05,VWS V14.01,2013-11-17 18:41:00,
2013-11-17 13:46:00,55.5,53.2,29.97,West,269,1.0,6.0,92,0.00,,OVC009,0.05,VWS V14.01,2013-11-17 18:46:00,
2013-11-17 13:51:00,55.7,53.4,29.97,SW,233,0.0,6.0,92,0.00,,OVC009,0.05,VWS V14.01,2013-11-17 18:51:00,
2013-11-17 13:56:00,55.7,53.4,29.96,NNW,329,0.0,6.0,92,0.00,,OVC009,0.05,VWS V14.01,2013-11-17 18:56:00,
2013-11-17 14:00:00,55.7,53.4,29.96,West,264,0.0,0.0,92,0.01,,-RA,0.06,VWS V14.01,2013-11-17 19:00:00,
2013-11-17 14:05:00,55.7,53.4,29.96,ESE,107,0.0,1.0,92,0.01,,-RA,0.06,VWS V14.01,2013-11-17 19:05:00,
2013-11-17 14:10:00,55.7,53.4,29.96,East,97,0.0,1.0,92,0.01,,-RA,0.06,VWS V14.01,2013-11-17 19:10:00,
2013-11-17 14:15:00,55.8,53.5,29.95,SW,233,0.0,2.0,92,0.01,,-RA,0.06,VWS V14.01,2013-11-17 19:15:00,
2013-11-17 14:20:00,55.8,53.5,29.95,West,266,1.0,6.0,92,0.02,,-RA,0.07,VWS V14.01,2013-11-17 19:20:00,
2013-11-17 14:25:00,56.0,53.7,29.95,East,100,1.0,6.0,92,0.02,,-RA,0.07,VWS V14.01,2013-11-17 19:25:00,
2013-11-17 14:30:00,56.0,53.7,29.95,WSW,240,1.0,1.0,92,0.02,,OVC011,0.07,VWS V14.01,2013-11-17 19:30:00,
2013-11-17 14:35:00,56.2,53.6,29.94,SW,236,1.0,9.0,91,0.03,,OVC011,0.08,VWS V14.01,2013-11-17 19:35:00,
2013-11-17 14:40:00,56.3,53.7,29.94,SW,218,2.0,10.0,91,0.03,,OVC011,0.08,VWS V14.01,2013-11-17 19:40:00,
2013-11-17 14:45:00,56.3,53.7,29.93,ESE,103,0.0,10.0,91,0.03,,OVC011,0.08,VWS V14.01,2013-11-17 19:45:00,
2013-11-17 14:50:00,56.3,53.7,29.93,SW,219,0.0,10.0,91,0.03,,OVC011,0.08,VWS V14.01,2013-11-17 19:50:00,
2013-11-17 14:55:00,56.3,54.0,29.93,SW,232,0.0,10.0,92,0.04,,OVC011,0.09,VWS V14.01,2013-11-17 19:55:00,
2013-11-17 15:00:00,56.3,54.0,29.92,SE,127,1.0,3.0,92,0.04,,-RA,0.09,VWS V14.01,2013-11-17 20:00:00,
2013-11-17 15:05:00,56.6,54.0,29.92,ENE,62,5.0,8.0,91,0.04,,-RA,0.09,VWS V14.01,2013-11-17 20:05:00,
2013-11-17 15:10:00,56.7,54.1,29.91,NE,44,3.0,8.0,91,0.04,,-RA,0.09,VWS V14.01,2013-11-17 20:10:00,
2013-11-17 15:15:00,56.8,54.2,29.91,WSW,238,0.0,12.0,91,0.05,,-RA,0.10,VWS V14.01,2013-11-17 20:15:00,
2013-11-17 15:20:00,56.8,54.2,29.91,East,93,3.0,12.0,91,0.05,,-RA,0.10,VWS V14.01,2013-11-17 20:20:00,
2013-11-17 15:25:00,56.8,54.2,29.91,East,79,4.0,12.0,91,0.05,,-RA,0.10,VWS V14.01,2013-11-17 20:25:00,
2013-11-17 15:30:00,56.8,54.2,29.90,SE,143,3.0,7.0,91,0.03,,-RA,0.10,VWS V14.01,2013-11-17 20:30:00,
2013-11-17 15:35:00,56.9,54.3,29.90,SSW,210,13.0,17.0,91,0.03,,-RA,0.10,VWS V14.01,2013-11-17 20:35:00,
2013-11-17 15:40:00,57.1,54.5,29.90,SSW,205,1.0,17.0,91,0.03,,-RA,0.10,VWS V14.01,2013-11-17 20:40:00,
2013-11-17 15:45:00,57.1,54.5,29.89,WSW,256,7.0,17.0,91,0.03,,-RA,0.10,VWS V14.01,2013-11-17 20:45:00,
2013-11-17 15:50:00,57.1,54.5,29.88,ENE,66,0.0,17.0,91,0.03,,-RA,0.10,VWS V14.01,2013-11-17 20:50:00,
2013-11-17 15:55:00,57.1,54.5,29.87,SSW,205,7.0,17.0,91,0.03,,-RA,0.10,VWS V14.01,2013-11-17 20:55:00,
2013-11-17 16:00:00,57.1,54.5,29.86,SW,215,4.0,4.0,91,0.01,,,0.10,VWS V14.01,2013-11-17 21:00:00,
2013-11-17 16:05:00,57.0,54.4,29.86,WSW,241,13.0,13.0,91,0.01,,,0.10,VWS V14.01,2013-11-17 21:05:00,
2013-11-17 16:10:00,57.1,54.5,29.86,SSE,155,7.0,15.0,91,0.01,,,0.10,VWS V14.01,2013-11-17 21:10:00,
2013-11-17 16:15:00,57.1,54.5,29.86,ESE,120,4.0,15.0,91,0.01,,,0.10,VWS V14.01,2013-11-17 21:15:00,
2013-11-17 16:20:00,57.2,54.6,29.86,NNW,346,3.0,15.0,91,0.01,,,0.10,VWS V14.01,2013-11-17 21:20:00,
2013-11-17 16:25:00,57.2,54.6,29.87,SSE,149,5.0,16.0,91,0.01,,,0.10,VWS V14.01,2013-11-17 21:25:00,
2013-11-17 16:30:00,57.3,54.7,29.86,SW,231,3.0,4.0,91,0.00,,,0.10,VWS V14.01,2013-11-17 21:30:00,
2013-11-17 16:35:00,57.3,54.7,29.85,WSW,257,2.0,14.0,91,0.00,,,0.10,VWS V14.01,2013-11-17 21:35:00,
2013-11-17 16:40:00,57.3,54.7,29.86,SSW,195,5.0,14.0,91,0.00,,,0.10,VWS V14.01,2013-11-17 21:40:00,
2013-11-17 16:45:00,57.2,54.6,29.86,SSW,203,2.0,14.0,91,0.00,,,0.10,VWS V14.01,2013-11-17 21:45:00,
2013-11-17 16:50:00,57.2,54.9,29.86,SW,236,2.0,14.0,92,0.00,,,0.10,VWS V14.01,2013-11-17 21:50:00,
2013-11-17 16:55:00,57.3,55.0,29.86,West,264,6.0,14.0,92,0.00,,,0.10,VWS V14.01,2013-11-17 21:55:00,
2013-11-17 17:00:00,57.4,54.8,29.86,SW,235,3.0,7.0,91,0.00,,OVC011,0.10,VWS V14.01,2013-11-17 22:00:00,
2013-11-17 17:05:00,57.4,54.8,29.86,SSW,194,3.0,12.0,91,0.00,,OVC011,0.10,VWS V14.01,2013-11-17 22:05:00,
2013-11-17 17:10:00,57.4,55.1,29.85,South,181,3.0,12.0,92,0.00,,OVC011,0.10,VWS V14.01,2013-11-17 22:10:00,
2013-11-17 17:15:00,57.4,55.1,29.86,South,191,2.0,14.0,92,0.00,,OVC011,0.10,VWS V14.01,2013-11-17 22:15:00,
2013-11-17 17:20:00,57.5,54.9,29.86,NNE,13,5.0,14.0,91,0.00,,OVC011,0.10,VWS V14.01,2013-11-17 22:20:00,
2013-11-17 17:25:00,57.5,54.9,29.85,South,186,2.0,14.0,91,0.00,,OVC011,0.10,VWS V14.01,2013-11-17 22:25:00,
2013-11-17 17:30:00,57.6,55.0,29.85,WNW,289,1.0,5.0,91,0.00,,OVC011,0.10,VWS V14.01,2013-11-17 22:30:00,
2013-11-17 17:35:00,57.6,55.0,29.85,SSE,149,8.0,14.0,91,0.00,,OVC011,0.10,VWS V14.01,2013-11-17 22:35:00,
2013-11-17 17:40:00,57.6,55.3,29.85,SW,236,10.0,14.0,92,0.00,,OVC011,0.10,VWS V14.01,2013-11-17 22:40:00,
2013-11-17 17:45:00,57.6,55.3,29.84,SW,215,4.0,14.0,92,0.00,,OVC011,0.10,VWS V14.01,2013-11-17 22:45:00,
2013-11-17 17:50:00,57.5,55.2,29.84,WSW,243,1.0,14.0,92,0.00,,OVC011,0.10,VWS V14.01,2013-11-17 22:50:00,
2013-11-17 17:55:00,57.6,55.3,29.84,SW,224,3.0,14.0,92,0.00,,OVC011,0.10,VWS V14.01,2013-11-17 22:55:00,
2013-11-17 18:00:00,57.6,55.0,29.84,SW,224,1.0,2.0,91,0.00,,OVC011,0.10,VWS V14.01,2013-11-17 23:00:00,
2013-11-17 18:05:00,57.8,55.2,29.83,NNW,327,3.0,15.0,91,0.00,,OVC011,0.10,VWS V14.01,2013-11-17 23:05:00,
2013-11-17 18:10:00,58.0,55.4,29.83,NE,44,4.0,15.0,91,0.00,,OVC011,0.10,VWS V14.01,2013-11-17 23:10:00,
2013-11-17 18:15:00,58.1,55.5,29.83,SW,218,13.0,18.0,91,0.00,,OVC011,0.10,VWS V14.01,2013-11-17 23:15:00,
2013-11-17 18:20:00,58.2,55.3,29.83,SSW,208,3.0,18.0,90,0.00,,OVC011,0.10,VWS V14.01,2013-11-17 23:20:00,
2013-11-17 18:25:00,58.3,55.4,29.82,SW,229,12.0,18.0,90,0.00,,OVC011,0.10,VWS V14.01,2013-11-17 23:25:00,
2013-11-17 18:30:00,58.3,55.4,29.81,SW,236,6.0,6.0,90,0.00,,OVC011,0.10,VWS V14.01,2013-11-17 23:30:00,
2013-11-17 18:35:00,58.3,55.4,29.80,SSW,212,5.0,18.0,90,0.00,,OVC011,0.10,VWS V14.01,2013-11-17 23:35:00,
2013-11-17 18:40:00,58.4,55.5,29.79,SW,219,10.0,21.0,90,0.00,,OVC011,0.10,VWS V14.01,2013-11-17 23:40:00,
2013-11-17 18:45:00,58.4,55.5,29.79,SW,226,13.0,21.0,90,0.00,,OVC011,0.10,VWS V14.01,2013-11-17 23:45:00,
2013-11-17 18:50:00,58.2,55.3,29.79,SW,218,2.0,21.0,90,0.00,,OVC011,0.10,VWS V14.01,2013-11-17 23:50:00,
2013-11-17 18:55:00,58.2,55.3,29.78,SE,145,3.0,21.0,90,0.00,,OVC011,0.10,VWS V14.01,2013-11-17 23:55:00,
2013-11-17 19:00:00,58.3,55.4,29.79,West,266,3.0,3.0,90,0.00,,,0.10,VWS V14.01,2013-11-18 00:00:00,
2013-11-17 19:05:00,58.3,55.4,29.79,SE,136,7.0,19.0,90,0.00,,,0.10,VWS V14.01,2013-11-18 00:05:00,
2013-11-17 19:10:00,58.3,55.4,29.78,WSW,242,6.0,20.0,90,0.00,,,0.10,VWS V14.01,2013-11-18 00:10:00,
2013-11-17 19:15:00,58.4,55.5,29.78,SW,235,8.0,20.0,90,0.00,,,0.10,VWS V14.01,2013-11-18 00:15:00,
2013-11-17 19:20:00,58.4,55.5,29.78,SW,224,3.0,20.0,90,0.00,,,0.10,VWS V14.01,2013-11-18 00:20:00,
2013-11-17 19:25:00,58.3,55.4,29.78,SSE,162,3.0,20.0,90,0.00,,,0.10,VWS V14.01,2013-11-18 00:25:00,
2013-11-17 19:30:00,58.3,55.4,29.77,SW,229,5.0,7.0,90,0.00,,,0.10,VWS V14.01,2013-11-18 00:30:00,
2013-11-17 19:35:00,58.4,55.5,29.77,SW,232,8.0,18.0,90,0.00,,,0.10,VWS V14.01,2013-11-18 00:35:00,
2013-11-17 19:40:00,58.4,55.5,29.77,West,273,4.0,18.0,90,0.00,,,0.10,VWS V14.01,2013-11-18 00:40:00,
2013-11-17 19:45:00,58.4,55.5,29.76,ENE,74,6.0,18.0,90,0.00,,,0.10,VWS V14.01,2013-11-18 00:45:00,
2013-11-17 19:50:00,58.5,55.6,29.76,WSW,248,9.0,19.0,90,0.00,,,0.10,VWS V14.01,2013-11-18 00:50:00,
2013-11-17 19:55:00,58.7,55.8,29.76,SW,221,6.0,19.0,90,0.00,,,0.10,VWS V14.01,2013-11-18 00:55:00,
2013-11-17 20:00:00,58.7,55.8,29.75,West,259,5.0,6.0,90,0.00,,OVC013,0.10,VWS V14.01,2013-11-18 01:00:00,
2013-11-17 20:05:00,58.9,55.7,29.75,ESE,120,4.0,16.0,89,0.00,,OVC013,0.10,VWS V14.01,2013-11-18 01:05:00,
2013-11-17 20:10:00,58.9,55.7,29.74,SW,215,4.0,16.0,89,0.00,,OVC013,0.10,VWS V14.01,2013-11-18 01:10:00,
2013-11-17 20:15:00,58.9,55.7,29.75,SSW,211,5.0,16.0,89,0.00,,OVC013,0.10,VWS V14.01,2013-11-18 01:15:00,
2013-11-17 20:20:00,58.9,55.7,29.73,ESE,103,5.0,16.0,89,0.00,,OVC013,0.10,VWS V14.01,2013-11-18 01:20:00,
2013-11-17 20:25:00,59.0,55.8,29.74,SSW,200,4.0,16.0,89,0.00,,OVC013,0.10,VWS V14.01,2013-11-18 01:25:00,
2013-11-17 20:30:00,59.1,55.9,29.74,ENE,65,1.0,2.0,89,0.00,,OVC013,0.10,VWS V14.01,2013-11-18 01:30:00,
2013-11-17 20:35:00,59.1,55.9,29.72,NE,36,3.0,6.0,89,0.00,,OVC013,0.10,VWS V14.01,2013-11-18 01:35:00,
2013-11-17 20:40:00,59.0,55.8,29.72,East,81,3.0,6.0,89,0.00,,OVC013,0.10,VWS V14.01,2013-11-18 01:40:00,
2013-11-17 20:45:00,59.0,55.8,29.72,West,270,3.0,8.0,89,0.00,,OVC013,0.10,VWS V14.01,2013-11-18 01:45:00,
2013-11-17 20:50:00,59.2,56.0,29.70,SSW,198,2.0,8.0,89,0.00,,OVC013,0.10,VWS V14.01,2013-11-18 01:50:00,
2013-11-17 20:55:00,59.2,56.0,29.70,SW,226,6.0,10.0,89,0.00,,OVC013,0.10,VWS V14.01,2013-11-18 01:55:00,
2013-11-17 21:00:00,59.2,56.0,29.69,East,87,6.0,11.0,89,0.00,,OVC015,0.10,VWS V14.01,2013-11-18 02:00:00,
2013-11-17 21:05:00,59.5,56.3,29.69,SW,222,1.0,12.0,89,0.00,,OVC015,0.10,VWS V14.01,2013-11-18 02:05:00,
2013-11-17 21:10:00,59.7,56.2,29.69,WSW,242,1.0,19.0,88,0.00,,OVC015,0.10,VWS V14.01,2013-11-18 02:10:00,
2013-11-17 21:15:00,59.8,56.2,29.69,ESE,117,2.0,19.0,88,0.00,,OVC015,0.10,VWS V14.01,2013-11-18 02:15:00,
2013-11-17 21:20:00,59.9,56.3,29.68,West,263,1.0,19.0,88,0.00,,OVC015,0.10,VWS V14.01,2013-11-18 02:20:00,
2013-11-17 21:25:00,59.9,56.0,29.68,WNW,284,6.0,19.0,87,0.00,,OVC015,0.10,VWS V14.01,2013-11-18 02:25:00,
2013-11-17 21:30:00,60.1,56.2,29.69,West,263,7.0,19.0,87,0.00,,OVC015,0.10,VWS V14.01,2013-11-18 02:30:00,
2013-11-17 21:35:00,60.2,56.3,29.67,ENE,58,1.0,18.0,87,0.00,,OVC015,0.10,VWS V14.01,2013-11-18 02:35:00,
2013-11-17 21:40:00,60.2,56.3,29.66,SE,128,6.0,18.0,87,0.00,,OVC015,0.10,VWS V14.01,2013-11-18 02:40:00,
2013-11-17 21:45:00,60.1,56.2,29.66,East,91,6.0,18.0,87,0.00,,OVC015,0.10,VWS V14.01,2013-11-18 02:45:00,
2013-11-17 21:50:00,60.0,56.1,29.64,SSW,212,9.0,18.0,87,0.00,,OVC015,0.10,VWS V14.01,2013-11-18 02:50:00,
2013-11-17 21:55:00,60.1,56.2,29.64,ESE,118,3.0,18.0,87,0.00,,OVC015,0.10,VWS V14.01,2013-11-18 02:55:00,
2013-11-17 22:00:00,60.1,56.2,29.64,WSW,238,10.0,18.0,87,0.00,,OVC017,0.10,VWS V14.01,2013-11-18 03:00:00,
2013-11-17 22:05:00,60.3,56.4,29.63,East,79,6.0,9.0,87,0.00,,OVC017,0.10,VWS V14.01,2013-11-18 03:05:00,
2013-11-17 22:10:00,60.4,56.5,29.63,SE,131,5.0,12.0,87,0.00,,OVC017,0.10,VWS V14.01,2013-11-18 03:10:00,
2013-11-17 22:15:00,60.5,56.3,29.63,NNE,30,1.0,14.0,86,0.00,,OVC017,0.10,VWS V14.01,2013-11-18 03:15:00,
2013-11-17 22:20:00,60.6,56.4,29.63,WNW,289,2.0,14.0,86,0.00,,OVC017,0.10,VWS V14.01,2013-11-18 03:20:00,
2013-11-17 22:25:00,60.6,56.4,29.62,NW,310,4.0,14.0,86,0.00,,OVC017,0.10,VWS V14.01,2013-11-18 03:25:00,
2013-11-17 22:30:00,60.6,56.4,29.61,WNW,285,1.0,14.0,86,0.00,,OVC017,0.10,VWS V14.01,2013-11-18 03:30:00,
2013-11-17 22:35:00,60.6,56.4,29.60,ESE,107,2.0,9.0,86,0.00,,OVC017,0.10,VWS V14.01,2013-11-18 03:35:00,
2013-11-17 22:40:00,60.7,56.5,29.60,SW,235,5.0,16.0,86,0.00,,OVC017,0.10,VWS V14.01,2013-11-18 03:40:00,
2013-11-17 22:45:00,60.9,56.7,29.59,South,191,3.0,16.0,86,0.00,,OVC017,0.10,VWS V14.01,2013-11-18 03:45:00,
2013-11-17 22:50:00,60.9,56.7,29.59,East,80,3.0,16.0,86,0.00,,OVC017,0.10,VWS V14.01,2013-11-18 03:50:00,
2013-11-17 22:55:00,61.1,56.9,29.59,ENE,70,4.0,16.0,86,0.00,,OVC017,0.10,VWS V14.01,2013-11-18 03:55:00,
2013-11-17 23:00:00,61.0,56.8,29.59,WNW,285,3.0,16.0,86,0.00,,OVC015,0.10,VWS V14.01,2013-11-18 04:00:00,
2013-11-17 23:05:00,61.0,56.8,29.60,WSW,253,6.0,11.0,86,0.01,,OVC015,0.11,VWS V14.01,2013-11-18 04:05:00,
2013-11-17 23:10:00,60.9,57.0,29.60,WNW,301,12.0,12.0,87,0.04,,OVC015,0.14,VWS V14.01,2013-11-18 04:10:00,
2013-11-17 23:15:00,60.6,57.0,29.59,SW,231,2.0,12.0,88,0.05,,OVC015,0.15,VWS V14.01,2013-11-18 04:15:00,
2013-11-17 23:20:00,60.4,56.8,29.58,WSW,252,1.0,12.0,88,0.07,,OVC015,0.17,VWS V14.01,2013-11-18 04:20:00,
2013-11-17 23:25:00,60.4,57.2,29.58,SW,225,3.0,13.0,89,0.08,,OVC015,0.18,VWS V14.01,2013-11-18 04:25:00,
2013-11-17 23:30:00,60.4,57.2,29.58,ESE,102,8.0,13.0,89,0.08,,OVC015,0.18,VWS V14.01,2013-11-18 04:30:00,
2013-11-17 23:35:00,60.3,57.0,29.57,SSW,210,3.0,6.0,89,0.10,,OVC015,0.20,VWS V14.01,2013-11-18 04:35:00,
2013-11-17 23:40:00,60.3,57.0,29.56,SSW,207,4.0,11.0,89,0.11,,OVC015,0.21,VWS V14.01,2013-11-18 04:40:00,
2013-11-17 23:45:00,60.3,57.0,29.56,SE,136,2.0,12.0,89,0.12,,OVC015,0.22,VWS V14.01,2013-11-18 04:45:00,
2013-11-17 23:50:00,60.4,57.2,29.55,East,95,3.0,14.0,89,0.13,,OVC015,0.23,VWS V14.01,2013-11-18 04:50:00,
2013-11-17 23:55:00,60.6,57.3,29.56,NE,48,3.0,14.0,89,0.13,,OVC015,0.23,VWS V14.01,2013-11-18 04:55:00,